Location: Goettingen
(51.5300°N, 9.9433°E)
Time: 05:55:35
(UTC+02:00)

ISS - Pass Details

Date: 30 March 2020
Orbit: 417 x 423 km, 51.6° (Epoch: 29 March)

Event Time Altitude Azimuth Distance (km) Brightness Sun altitude
Rises 22:31:52 0° 283° (WNW) 2,363 1.0 -23.3°
Reaches altitude 10° 22:34:11 10° 270° (W) 1,497 -0.4 -23.6°
Enters shadow 22:35:41 19° 248° (WSW) 1,056 -1.5 -23.7°
